Meath Environmental Platform

Observations for Trim Patrick St

Time AQI Temp °C Hum % Pres Pa CO μg/m³ H₂S μg/m³ NO μg/m³ NO₂ μg/m³ O₃ μg/m³ SO₂ μg/m³ PM1 μg/m³ PM2.5 μg/m³ PM10 μg/m³
Tuesday 4 August 2026
09:32 2 23.4 71 38,460 0 0 1.96 3.16 28.31 8.51 2 5.11 5.63
09:31 2 23.4 71 38,460 0 0 1.96 4.16 32.19 8.28 2 5.06 5.57
09:29 2 23.2 71 38,460 0 0 1.98 3.46 26.89 7.81 2 5.09 5.6
09:28 2 23.2 71 38,460 0 0 1.97 3.1 34.65 7.81 2 5.11 5.62
09:27 2 23.1 71 38,460 0 0 1.99 2.34 33.95 8.02 2 5.09 5.6
09:25 2 23 71 38,460 0 0 1.93 1.32 25.52 7.75 2 5.08 5.58
09:24 2 23 72 38,460 0 0 2.04 0.92 30.96 7.71 2 5 5.5
09:23 2 23 72 38,460 0 0 1.97 1.22 31.57 8.07 2 5.04 5.54
09:22 2 22.9 72 38,460 0 0 1.91 1.31 26.53 7.85 2 5.06 5.56
09:21 2 22.9 72 38,460 0 0 1.92 1.68 31.4 7.77 2 5.03 5.54
09:20 2 22.9 72 38,460 0 0 1.91 1.11 29.44 7.6 2 5.04 5.55
09:19 2 22.9 72 38,460 0 0 1.93 0.8 21.06 7.39 2 5.75 6.32
09:18 2 22.9 72 38,460 0 0 1.92 1.24 13.52 7.02 2 5.04 5.54
09:17 2 22.9 74 38,460 0 0 2.01 0.21 31.17 7.93 2 4.93 5.42
09:16 2 22.9 72 38,460 0 0 1.94 1.1 23.35 7.92 2 5.03 5.54
09:15 2 22.9 73 38,460 0 0 1.96 1.55 28.95 7.27 2 4.99 5.49
09:14 2 22.9 72 38,460 0 0 1.93 1.01 18.1 7.76 2 5.03 5.53
09:10 2 22.8 73 38,460 0 0 1.97 0.74 18.47 7.21 2 4.98 5.47
09:09 2 22.8 73 38,460 0 0 1.97 1.89 25.2 7.67 2 4.98 5.48
09:08 2 22.8 72 38,460 0 0 2.11 1.04 20.11 7.66 2 5.01 5.51